[[{"header":{"parameterUnit":"m.s-1","parameterCategory":1,"la1":30.2991,"la2":30.254,"lo1":-89.0895,"lo2":-89.0444,"dy":0.0017,"dx":0.0017,"nx":28,"ny":28,"refTime":"2024-06-09T09:00:00:Z","depth":0,"parameterNumber":2,"parameterNumberName":"U-component_of_WINDS"},"data":[0,0,0,0,0,0,0,0,0,0,0,0,0,0,0,0,0,0,0,0,0,0,0,0,0,0,0,0,0,0,0,0,0,0,0,0,0,0,0,0,0,0,0,0,0,0,0,0,0,0,0,0,0,0,0,0,0,0,3.923,3.9232,0,3.9335,3.9336,3.9337,3.9348,3.9347,3.9346,3.9345,3.9453,3.9457,3.9461,0,0,0,0,0,0,0,0,0,0,0,0,0,3.9043,3.9046,3.923,3.9232,3.9233,3.9335,3.9336,3.9337,3.9348,3.9347,3.9346,3.9345,3.9452,3.9457,3.9461,0,0,0,0,0,0,0,0,0,0,0,0,0,3.9133,3.9047,3.923,3.9251,3.9253,3.9334,3.9336,3.9338,3.9349,3.9347,3.9345,3.9344,3.9451,3.9456,3.9462,3.953,0,0,3.948,3.9482,0,0,0,0,0,0,0,0,3.9128,3.914,3.9246,3.9249,3.9253,3.9327,3.931,3.9402,3.9349,3.9313,3.9345,3.9343,3.9413,3.9421,3.9445,3.9535,3.954,3.948,3.9484,3.9486,3.9488,0,0,0,0,0,0,0,3.9122,3.9136,3.9272,3.9248,3.9252,3.9255,3.9267,3.9327,3.937,3.9316,3.9317,3.9329,3.9414,3.9439,3.9447,3.9541,3.948,3.9485,3.9489,3.9491,3.9694,3.9696,0,0,0,0,0,0,3.9112,3.9131,3.9268,3.9275,3.9185,3.926,3.9272,3.9305,3.937,3.9378,3.933,3.9329,3.943,3.944,3.9451,3.9536,3.9486,3.9492,3.9495,3.9693,3.9695,3.9697,0,0,0,0,0,0,3.9108,3.9124,3.9264,3.9203,3.9221,3.9265,3.9301,3.9308,3.9332,3.9381,3.9389,3.9347,3.9429,3.9443,3.9511,3.954,3.9494,3.95,3.969,3.9693,3.9696,3.9705,0,0,0,0,0,0,3.9102,3.9122,3.9148,3.9204,3.9224,3.9321,3.9303,3.9311,3.9342,3.9342,3.9399,3.9407,3.9429,3.9502,3.9516,3.9547,3.9504,3.9688,3.9692,3.9695,3.9702,3.9708,3.9713,0,0,0,0,0,3.9095,3.9146,3.9149,3.9166,3.9257,3.9323,3.9335,3.9358,3.9345,3.9371,3.9402,3.9405,3.9534,3.9509,3.9525,3.9558,3.9686,3.9691,3.9695,3.97,3.9707,3.9713,0,0,0,0,0,0,3.9093,3.9154,3.9158,3.9228,3.927,3.9324,3.9358,3.9365,3.9412,3.9409,3.9437,3.945,3.9517,3.9544,3.9515,3.9628,3.9609,3.9617,3.9607,3.9614,3.9619,3.9611,3.9509,0,0,0,0,0,3.91,3.9148,3.9199,3.9256,3.9277,3.9314,3.9343,3.9358,3.9403,3.9421,3.9457,3.9501,3.9552,3.9585,3.9634,3.9707,3.972,3.9738,3.9743,3.9747,3.9753,3.9795,3.9803,3.9711,3.9711,3.9711,0,0,3.9116,3.9156,3.9184,3.9256,3.9291,3.934,3.9329,3.9381,3.9419,3.9429,3.9495,3.9524,3.9575,3.9646,3.9679,3.967,3.9782,3.9752,3.9755,3.9759,3.98,3.9809,3.9816,3.9714,3.9714,3.9713,0,0,3.9171,3.9205,3.9257,3.9292,3.9344,3.9369,3.9381,3.9435,3.9455,3.9521,3.9531,3.9576,3.9662,3.9699,3.9729,3.9799,3.9804,3.9814,3.9841,3.9881,3.9889,3.9895,3.9921,3.993,3.9821,3.9821,3.9821,0,3.9184,3.9258,3.9283,3.9335,3.9367,3.938,3.9433,3.9466,3.9532,3.9554,3.9544,3.9654,3.9689,3.9769,3.9786,3.981,3.9826,3.9808,3.9886,3.9892,3.9899,3.9924,3.9933,3.9822,3.9822,3.9821,3.9821,0,3.9273,3.9324,3.936,3.9423,3.946,3.9512,3.9545,3.958,3.9592,3.9618,3.9687,3.973,3.9788,3.9809,3.9821,3.9891,3.9884,3.988,3.9861,3.9908,3.9932,3.9942,3.9823,3.9823,3.9822,3.9822,0,0,3.9327,3.9404,3.9417,3.9446,3.9506,3.9547,3.9601,3.9658,3.9687,3.9733,3.9779,3.9853,3.9849,3.9883,3.99,3.9935,3.9989,3.9927,3.9928,3.9937,4.007,4.0073,4.0083,3.9993,3.9995,3.9997,4.0066,0,3.9388,3.9484,3.9509,3.959,3.9639,3.9652,3.9699,3.9742,3.9768,3.9814,3.9843,3.9895,3.9886,3.9907,3.9943,3.9975,4.0016,3.9971,4.0037,4.0039,4.0023,4.0096,4.0099,4.0162,4.0075,4.0077,4.0078,0,3.9473,3.952,3.9607,3.9661,3.9682,3.9724,3.9779,3.9823,3.9871,3.9888,3.9927,3.9941,3.9999,3.9978,4.0058,4.0026,4.0056,4.0076,4.0079,4.0086,4.0061,4.0105,4.0183,4.0192,4.0093,4.0092,4.0091,0,3.9504,3.959,3.9653,3.9678,3.9743,3.9772,3.9801,3.9848,3.9881,3.993,3.9952,4.0007,4.0037,4.0079,4.0108,4.009,4.0187,4.0168,4.0203,4.0202,4.0222,4.022,4.0306,4.0241,4.0241,4.0241,4.024,0,3.957,3.9623,3.9668,3.9707,3.9767,3.9795,3.9854,3.9883,3.9925,3.997,3.9986,4.0028,4.0063,4.0111,4.0134,4.0198,4.0212,4.0227,4.0233,4.0226,4.0224,4.0245,4.0241,4.0243,4.0243,4.0242,4.0242,0,3.9615,3.9647,3.9717,3.9773,3.9789,3.9831,3.9879,3.9918,3.9945,4.0003,4.0018,4.0061,4.0118,4.0151,4.0223,4.0238,4.0309,4.0313,4.0293,4.0295,4.0328,4.0324,4.043,4.0445,4.037,4.0371,4.0372,0,3.9655,3.9696,3.9756,3.9788,3.9817,3.9867,3.9901,3.9931,3.9967,4.0026,4.0058,4.0116,4.0164,4.0254,4.0293,4.0348,4.0353,4.0386,4.0361,4.0354,4.0354,4.0351,4.0355,4.039,4.0391,4.0391,4.0392,0,3.9722,3.9737,3.9785,3.984,3.988,3.9925,3.9969,3.9994,4.0032,4.0071,4.0129,4.0166,4.024,4.0298,4.0357,4.0387,4.0396,4.04,4.0411,4.0404,4.039,4.0398,4.0304,4.0397,4.0396,4.0396,4.0396,4.0396,3.9766,3.9803,3.9852,3.9906,3.9943,3.9984,4.0024,4.0056,4.0105,4.0167,4.0182,4.0244,4.0293,4.0373,4.0405,4.0454,4.0449,4.0465,4.0469,4.0472,4.0473,4.0383,4.0465,4.0465,4.0465,4.0465,4.0465,0,3.9835,3.9867,3.9916,3.9978,4.0021,4.0026,4.0075,4.0111,4.0165,4.0209,4.0256,4.0324,4.0381,4.0424,4.0482,4.0513,4.0519,4.0527,4.0525,4.0532,4.0475,4.0459,4.0521,4.0521,4.0521,4.0521,4.0521,4.0521,3.9875,3.9939,3.9959,4.0042,4.0074,4.0134,4.0162,4.0201,4.0237,4.0311,4.0358,4.0386,4.0431,4.0492,4.0544,4.0556,4.0576,4.0584,4.0596,4.0542,4.0536,4.053,4.0516,4.0589,4.0589,4.0649,4.065,4.065]},{"header":{"parameterUnit":"m.s-1","parameterCategory":1,"la1":30.2991,"la2":30.254,"lo1":-89.0895,"lo2":-89.0444,"dy":0.0017,"dx":0.0017,"nx":28,"ny":28,"refTime":"2024-06-09T09:00:00:Z","depth":0,"parameterNumber":3,"parameterNumberName":"V-component_of_WINDS"},"data":[0,0,0,0,0,0,0,0,0,0,0,0,0,0,0,0,0,0,0,0,0,0,0,0,0,0,0,0,0,0,0,0,0,0,0,0,0,0,0,0,0,0,0,0,0,0,0,0,0,0,0,0,0,0,0,0,0,0,0.2206,0.2206,0,0.2201,0.2201,0.2201,0.2197,0.2197,0.2197,0.2197,0.2191,0.219,0.219,0,0,0,0,0,0,0,0,0,0,0,0,0,0.2211,0.2211,0.2206,0.2206,0.2206,0.2201,0.2201,0.2201,0.2197,0.2197,0.2197,0.2197,0.2191,0.219,0.219,0,0,0,0,0,0,0,0,0,0,0,0,0,0.2208,0.2211,0.2206,0.2203,0.2203,0.2201,0.2201,0.2201,0.2197,0.2197,0.2197,0.2197,0.2191,0.219,0.219,0.219,0,0,0.219,0.219,0,0,0,0,0,0,0,0,0.2208,0.2208,0.2204,0.2203,0.2203,0.2199,0.22,0.2197,0.2197,0.2199,0.2197,0.2197,0.2193,0.2193,0.2192,0.219,0.2189,0.219,0.2189,0.2189,0.2189,0,0,0,0,0,0,0,0.2208,0.2208,0.2204,0.2204,0.2203,0.2202,0.2201,0.22,0.2197,0.2199,0.2199,0.2198,0.2193,0.2192,0.2192,0.2189,0.219,0.2189,0.2189,0.2189,0.2185,0.2185,0,0,0,0,0,0,0.2209,0.2208,0.2204,0.2204,0.2206,0.2202,0.2201,0.2201,0.2197,0.2196,0.2198,0.2198,0.2193,0.2192,0.2192,0.219,0.2189,0.2189,0.2189,0.2185,0.2185,0.2185,0,0,0,0,0,0,0.2209,0.2209,0.2204,0.2206,0.2205,0.2202,0.2201,0.2201,0.22,0.2196,0.2195,0.2198,0.2193,0.2192,0.219,0.219,0.2189,0.2189,0.2185,0.2185,0.2185,0.2188,0,0,0,0,0,0,0.2209,0.2209,0.2209,0.2206,0.2205,0.2203,0.2201,0.22,0.2199,0.2199,0.2196,0.2195,0.2193,0.2191,0.219,0.219,0.2189,0.2185,0.2185,0.2185,0.2188,0.2188,0.2188,0,0,0,0,0,0.221,0.221,0.2209,0.2209,0.2205,0.2203,0.2203,0.22,0.2199,0.2199,0.2197,0.2195,0.219,0.219,0.219,0.219,0.2185,0.2185,0.2185,0.2188,0.2188,0.2188,0,0,0,0,0,0,0.2213,0.221,0.2208,0.2208,0.2206,0.2203,0.2202,0.2201,0.2199,0.2199,0.2195,0.2194,0.2193,0.2191,0.2191,0.2188,0.2187,0.2187,0.219,0.219,0.219,0.2191,0.2189,0,0,0,0,0,0.2214,0.2213,0.221,0.221,0.2209,0.2206,0.2205,0.2203,0.2201,0.22,0.2197,0.2195,0.2192,0.2191,0.2189,0.2188,0.2186,0.2187,0.2187,0.2188,0.2187,0.2186,0.2186,0.2185,0.2185,0.2185,0,0,0.2216,0.2214,0.2213,0.221,0.2209,0.2207,0.2205,0.2204,0.2203,0.2199,0.2198,0.2195,0.2192,0.2191,0.219,0.2189,0.2187,0.2188,0.2188,0.2188,0.2186,0.2186,0.2186,0.2185,0.2185,0.2185,0,0,0.2218,0.2216,0.2216,0.2214,0.2211,0.2209,0.2209,0.2206,0.2204,0.2202,0.22,0.2198,0.2194,0.2192,0.219,0.2191,0.2189,0.219,0.2191,0.219,0.219,0.219,0.2189,0.2189,0.219,0.219,0.219,0,0.222,0.2218,0.2216,0.2214,0.2213,0.221,0.2209,0.2207,0.2204,0.2203,0.2202,0.2197,0.2195,0.2192,0.2192,0.2191,0.219,0.2191,0.219,0.219,0.219,0.2189,0.2189,0.219,0.219,0.219,0.219,0,0.2221,0.2219,0.2219,0.2216,0.2215,0.2214,0.221,0.2209,0.2207,0.2205,0.2202,0.22,0.2196,0.2196,0.2194,0.2192,0.2192,0.2191,0.2189,0.219,0.219,0.219,0.219,0.219,0.219,0.219,0,0,0.2226,0.2221,0.2221,0.2219,0.2215,0.2214,0.2212,0.2209,0.2208,0.2206,0.2204,0.22,0.2199,0.2197,0.2195,0.2194,0.2193,0.2192,0.2192,0.2192,0.2191,0.2191,0.2191,0.2192,0.2192,0.2192,0.2191,0,0.2227,0.2224,0.2222,0.222,0.2218,0.2215,0.2213,0.2211,0.2208,0.2206,0.2203,0.2201,0.2199,0.2198,0.2197,0.2194,0.2193,0.2194,0.2189,0.2189,0.219,0.2191,0.2192,0.2191,0.219,0.219,0.219,0,0.2228,0.2226,0.2224,0.222,0.2219,0.2218,0.2214,0.2212,0.2209,0.2207,0.2205,0.2202,0.22,0.2199,0.2195,0.2195,0.2193,0.2192,0.2191,0.2191,0.219,0.219,0.2191,0.2191,0.219,0.219,0.219,0,0.2231,0.2227,0.2226,0.2224,0.222,0.2219,0.2217,0.2213,0.2211,0.2208,0.2207,0.2203,0.2201,0.2199,0.2195,0.2195,0.2191,0.219,0.2189,0.2189,0.2188,0.2188,0.2189,0.2188,0.2188,0.2188,0.2188,0,0.2233,0.2231,0.2227,0.2226,0.2224,0.2221,0.2219,0.2216,0.2213,0.2211,0.2208,0.2206,0.2201,0.2198,0.2196,0.2192,0.2191,0.219,0.2189,0.219,0.219,0.2188,0.2188,0.2188,0.2188,0.2188,0.2188,0,0.2236,0.2233,0.223,0.2226,0.2225,0.2224,0.222,0.2218,0.2215,0.2213,0.2212,0.2207,0.2204,0.22,0.2195,0.2193,0.219,0.2189,0.2191,0.219,0.219,0.219,0.2189,0.2188,0.2188,0.2188,0.2188,0,0.2237,0.2236,0.2231,0.223,0.2228,0.2225,0.2223,0.222,0.2218,0.2213,0.2212,0.2208,0.2205,0.2199,0.2195,0.2191,0.219,0.219,0.2189,0.219,0.2189,0.2189,0.2189,0.219,0.219,0.219,0.219,0,0.2239,0.2237,0.2235,0.2232,0.2229,0.2227,0.2224,0.2223,0.2218,0.2216,0.2212,0.221,0.2205,0.2201,0.2196,0.2193,0.2191,0.219,0.219,0.2191,0.2192,0.2191,0.2191,0.219,0.219,0.219,0.219,0.219,0.2241,0.224,0.2236,0.2233,0.223,0.2228,0.2226,0.2223,0.222,0.2215,0.2213,0.2209,0.2205,0.2199,0.2196,0.2192,0.2192,0.2191,0.2191,0.2191,0.2191,0.2192,0.2192,0.2192,0.2192,0.2192,0.2192,0,0.2242,0.224,0.2237,0.2233,0.2231,0.2229,0.2225,0.2223,0.222,0.2216,0.2213,0.2209,0.2204,0.22,0.2195,0.2193,0.2192,0.2192,0.2192,0.2191,0.2192,0.2193,0.2193,0.2193,0.2193,0.2193,0.2193,0.2193,0.2243,0.224,0.2238,0.2234,0.2231,0.2228,0.2226,0.2223,0.222,0.2215,0.2212,0.2209,0.2205,0.22,0.2196,0.2194,0.2192,0.2193,0.2191,0.2192,0.2192,0.2191,0.2192,0.2193,0.2193,0.2191,0.2191,0.2191]}]]